Location: Arlington
(31.4185°N, 90.5568°W)
Time: 11:45:52
(UTC+00:00)

Nauka - Pass Details

Date: 05 October 2021
Orbit: 417 x 423 km, 51.6° (Epoch: 17 October)

Event Time Altitude Azimuth Distance (km) Brightness Sun altitude
Rises 01:21:09 0° 321° (NW) 2,360 ? -21.7°
Reaches altitude 10° 01:23:18 10° 327° (NNW) 1,495 ? -22.2°
Enters shadow 01:25:11 28° 345° (NNW) 808 ? -22.6°
